Theta_e
287 287 287 286 286 286 286 286 285 285 285 284 284 284 283 284 284 285 285 286 285 284 282 280 279 277 276 275 274 274 274 274 275 275 276 276 276 277 278 279 281 283 285 288 291 293 293 294 294 294 294 295 295 295 295 295 295 297 298 300 301 302 304 304 308 316 320 320 321 321 320 321 320 319 320 322 322 321 320 320 320 319 318 317 317
287 287 287 287 286 286 285 285 285 285 285 284 284 283 283 284 284 285 286 286 285 283 281 280 278 276 275 275 274 273 273 274 274 275 275 275 275 276 277 278 279 281 284 288 290 292 293 293 294 294 294 295 295 295 295 295 296 297 298 300 301 302 305 305 308 315 319 318 321 322 321 321 320 319 321 321 320 319 319 319 318 318 317 317 317
287 287 286 286 286 285 285 285 285 285 284 284 283 283 283 284 285 285 286 286 285 283 281 279 278 276 274 274 274 273 273 273 274 274 274 274 274 275 275 276 277 280 284 287 289 290 292 293 293 294 294 295 295 295 296 296 296 297 298 300 302 304 305 306 309 315 318 318 320 321 321 320 320 320 321 320 318 318 318 317 316 315 315 317 316
287 286 286 286 285 285 285 285 285 285 284 284 283 283 283 284 285 285 285 285 283 282 280 279 278 276 274 273 273 272 272 273 273 273 273 273 273 274 274 275 277 280 282 285 288 289 291 292 293 293 294 295 295 295 296 296 297 298 299 301 303 305 306 307 311 317 318 317 319 320 321 320 320 320 321 319 319 319 318 317 316 315 315 316 316
287 286 286 286 285 285 285 285 285 285 284 283 282 282 283 284 284 285 285 284 282 281 280 279 277 275 273 272 272 271 272 272 272 273 273 272 272 273 274 275 277 279 281 284 288 289 290 292 292 293 294 295 295 296 296 297 298 298 299 301 304 306 306 307 313 317 318 318 318 319 320 320 320 320 320 320 319 319 319 317 317 316 316 316 314
286 286 286 286 285 285 285 285 284 284 284 283 282 282 283 283 284 284 283 283 281 280 279 278 277 276 273 272 271 271 271 271 272 272 272 272 272 272 274 275 277 279 282 285 288 289 289 291 292 292 293 294 295 296 296 297 298 298 300 302 304 306 306 308 314 317 317 318 319 318 318 319 319 319 319 320 319 318 318 318 317 316 316 315 313
286 286 286 285 285 285 285 284 284 283 283 282 281 281 282 283 284 284 282 281 281 280 279 278 277 276 274 272 271 271 272 272 271 271 271 271 272 272 273 275 277 279 282 284 287 289 290 290 291 292 292 294 295 296 296 297 298 298 300 301 304 305 305 309 315 316 316 317 318 318 317 317 318 318 318 319 319 318 318 317 316 316 314 312 311
286 286 286 285 285 285 284 284 283 283 282 281 281 281 282 283 283 283 282 281 280 279 278 276 275 274 273 272 272 272 272 272 272 272 272 272 273 273 273 274 275 279 282 284 286 289 290 290 291 292 292 293 295 296 296 297 297 299 300 301 303 304 305 311 316 316 316 316 316 317 317 316 317 317 317 318 317 317 317 317 316 315 314 311 308
287 286 286 285 285 284 284 283 283 282 281 280 280 281 282 282 282 282 281 280 279 278 275 274 273 273 272 271 271 272 272 272 272 273 273 274 274 274 273 274 275 277 280 283 286 288 290 290 291 291 292 293 294 295 297 296 297 298 299 301 303 303 305 312 316 315 315 315 314 315 315 315 315 315 316 316 316 316 317 316 316 315 312 309 307
286 286 286 285 285 284 283 283 282 281 279 279 279 280 281 282 282 282 281 279 277 276 274 272 272 272 271 271 270 271 272 273 273 272 273 273 274 274 274 274 275 276 278 281 284 288 290 290 290 291 292 293 294 295 296 296 296 298 299 300 302 302 304 311 315 314 314 313 313 313 313 313 314 315 315 316 316 316 316 315 315 314 311 309 307
286 286 286 285 284 283 282 281 280 279 279 279 279 280 281 281 282 282 281 279 277 275 273 271 271 271 270 270 270 271 272 274 274 273 272 273 273 274 274 275 275 276 277 279 282 285 288 289 289 291 291 292 293 294 295 295 296 297 298 300 301 301 302 309 314 314 313 313 312 313 313 313 314 315 316 316 316 315 316 315 315 313 311 309 308
286 286 285 284 283 282 281 279 279 278 278 278 279 280 281 281 281 281 280 278 276 274 272 270 270 271 270 270 270 271 272 274 275 273 272 273 274 274 275 275 275 276 277 279 280 283 286 287 288 290 291 292 292 293 294 294 295 297 298 299 301 301 301 306 313 315 314 313 313 313 313 314 314 315 315 315 315 316 316 315 314 313 311 310 309
286 286 285 283 282 280 279 278 278 278 278 278 279 280 281 281 281 280 279 277 275 273 271 269 269 270 269 269 270 271 272 274 275 275 274 274 274 275 275 275 275 276 277 278 280 282 284 286 287 289 291 292 292 293 294 294 294 296 297 299 301 302 302 305 313 317 316 314 314 313 315 315 314 315 315 315 315 315 315 314 314 313 312 311 310
286 285 284 282 280 279 278 277 277 277 278 279 280 280 280 281 280 278 277 276 275 272 270 269 269 269 268 269 270 271 273 275 276 276 276 275 275 276 276 276 276 276 276 278 280 281 283 284 286 288 290 291 292 293 293 293 294 295 297 299 301 303 304 306 312 316 316 316 315 314 315 316 316 316 316 315 315 315 314 314 314 313 312 311 310
285 284 282 281 279 278 277 276 277 277 278 279 280 280 280 279 278 277 275 274 272 270 269 268 268 268 268 269 270 271 274 276 276 276 277 276 276 276 276 276 276 276 277 278 279 281 282 283 285 287 289 291 292 292 293 293 294 294 296 299 301 303 305 307 311 315 316 316 317 316 316 317 317 317 316 315 315 315 314 314 313 312 312 312 310
284 283 281 280 278 277 276 276 277 278 279 279 279 280 279 278 277 276 274 271 269 268 268 267 267 267 268 269 269 271 275 276 276 277 277 277 276 276 277 277 277 277 278 279 280 281 282 283 284 286 288 290 291 292 293 293 293 293 295 298 301 303 305 308 311 314 316 317 318 318 318 317 318 318 317 316 315 313 312 311 311 310 311 312 310
283 281 280 278 277 276 276 276 277 278 279 279 279 279 278 277 275 273 272 271 269 268 267 267 267 267 268 269 270 272 275 277 277 278 278 277 277 277 277 277 277 277 279 280 281 282 282 283 284 285 287 288 290 291 292 292 293 293 294 297 299 301 304 307 311 313 316 318 318 318 318 318 318 318 318 317 315 312 311 310 309 309 310 311 310
281 280 278 277 276 276 276 276 277 278 278 278 278 278 277 276 274 271 270 270 269 268 267 266 267 267 268 270 272 272 274 277 278 278 278 278 278 278 277 277 277 278 279 280 281 282 282 283 284 285 286 287 289 290 291 291 292 293 294 295 298 300 302 307 310 311 314 317 318 318 318 318 318 317 317 316 314 313 312 311 309 309 308 309 310
280 279 278 276 276 276 276 277 277 278 278 277 277 277 276 274 273 271 270 269 268 268 267 266 267 267 268 270 272 272 274 276 277 277 277 278 279 279 279 278 278 279 280 280 281 282 283 284 285 286 286 287 288 289 290 291 291 292 293 294 296 299 302 307 310 311 312 314 315 316 317 317 317 317 316 314 313 313 314 312 310 309 308 307 308
279 278 277 275 275 276 276 277 277 277 277 277 276 276 275 273 273 271 270 269 268 268 267 266 266 267 268 270 271 272 274 275 276 276 276 278 279 280 280 280 280 280 281 281 282 282 283 284 285 286 287 288 288 289 289 290 291 292 293 294 296 299 302 307 311 311 310 312 312 313 315 315 315 315 315 314 313 313 313 313 312 311 309 307 306
278 277 276 275 275 276 276 276 277 277 276 276 276 275 274 273 272 270 269 269 268 267 266 266 266 267 268 269 270 271 272 273 275 275 276 277 278 279 280 281 281 282 282 282 282 283 284 285 285 286 287 288 289 289 289 290 291 292 293 295 297 298 300 305 311 311 311 312 311 311 312 313 312 313 314 314 314 313 312 312 312 312 311 308 307
277 276 275 275 275 276 276 276 277 277 276 275 275 275 274 272 271 269 268 268 267 265 265 266 266 267 268 268 269 270 271 272 274 275 276 276 277 278 280 281 282 282 283 283 283 284 285 285 286 286 287 288 290 290 290 291 291 292 293 295 297 298 299 303 309 311 310 311 311 310 310 311 310 311 312 314 314 313 311 312 312 312 312 310 309
276 275 275 275 275 276 276 276 276 276 275 274 274 275 274 272 271 269 268 266 265 264 265 266 267 267 268 268 269 270 271 271 272 274 275 276 277 278 279 281 282 282 283 284 284 285 286 287 287 287 288 288 289 290 290 291 291 291 293 294 296 298 299 301 307 311 310 309 310 310 310 310 310 311 311 312 313 313 312 312 312 312 312 311 311
275 275 275 275 275 275 276 276 276 276 275 274 274 274 273 272 271 269 267 265 264 264 265 266 267 267 268 268 269 270 271 271 271 273 275 276 277 278 280 281 282 283 283 284 285 285 286 287 288 289 289 290 290 290 290 291 291 292 293 295 297 299 299 301 306 310 310 308 309 310 310 311 312 312 313 313 313 314 313 312 311 312 311 311 311
274 274 275 275 275 275 276 276 276 275 275 274 273 273 273 271 270 268 266 265 264 265 266 267 267 268 268 269 270 270 270 270 271 272 274 275 277 278 280 281 283 284 284 286 287 287 287 288 289 290 291 291 291 291 291 291 292 292 294 296 298 298 299 301 305 309 309 308 309 310 311 311 313 313 313 313 313 314 313 311 310 310 310 310 310
274 274 274 274 275 275 275 276 275 275 275 274 273 272 272 271 269 267 265 265 265 266 267 267 267 268 269 269 270 270 270 270 270 271 272 274 276 278 280 281 283 284 285 287 288 289 289 290 290 291 291 292 292 293 292 292 293 293 294 296 298 298 299 302 305 308 310 310 310 311 312 312 312 312 311 311 312 312 312 310 309 309 310 310 310
274 274 274 274 274 275 275 275 275 275 275 275 273 272 272 272 270 267 265 265 266 267 267 267 268 268 269 270 270 270 270 270 270 271 272 273 274 276 279 281 282 284 286 288 288 289 290 291 291 291 292 292 293 293 293 293 293 294 294 296 298 299 300 302 305 309 310 311 311 311 311 311 310 309 309 310 311 312 311 310 309 309 309 309 309
274 274 274 274 274 275 275 275 274 274 274 274 274 272 271 271 271 269 267 266 266 267 267 267 268 269 269 269 269 269 270 270 271 271 272 273 273 275 279 281 282 283 285 287 288 288 290 290 291 291 292 293 294 294 294 294 294 294 295 297 299 299 300 302 306 308 309 310 310 308 308 308 308 308 309 309 310 310 310 310 309 309 309 308 308
273 273 273 274 274 274 275 274 274 274 273 274 274 273 271 271 270 270 269 267 267 267 268 268 268 269 269 269 269 269 270 270 271 272 273 273 273 274 277 280 282 283 286 287 287 288 289 290 291 292 292 293 295 295 295 294 294 295 296 298 299 300 300 302 305 307 308 308 308 307 307 308 307 307 308 308 308 309 309 309 309 308 308 308 308
273 273 273 273 273 274 274 274 274 273 273 273 273 273 273 272 270 270 270 269 268 267 267 268 268 269 269 269 269 269 270 270 271 271 272 272 273 274 276 278 281 284 288 288 287 288 289 291 291 292 292 293 295 296 295 295 295 295 297 298 299 300 300 302 305 307 308 308 308 308 308 308 307 306 307 307 307 307 308 308 308 307 307 307 307
273 272 272 273 273 273 273 273 273 273 273 272 272 272 274 274 273 271 271 271 270 269 268 268 268 268 269 269 268 268 269 270 270 270 271 271 272 275 277 278 280 284 288 290 289 289 290 291 292 293 293 293 295 296 296 296 295 296 297 298 299 300 300 302 304 306 307 308 309 309 309 308 307 307 306 307 307 307 307 307 307 307 308 307 307
272 272 272 272 272 273 273 273 272 272 272 272 271 271 272 273 274 274 273 272 271 270 270 270 269 268 268 268 268 268 268 269 269 269 270 270 272 275 277 278 280 283 287 289 289 289 290 290 292 293 293 294 295 296 297 297 296 296 297 298 299 300 301 302 304 305 306 307 308 308 308 308 308 307 307 307 307 306 306 305 306 307 307 307 307
272 272 271 272 272 272 272 272 272 272 272 271 271 271 271 271 272 274 274 274 273 272 271 271 271 270 268 268 268 268 268 268 268 268 269 270 272 274 276 277 279 282 285 287 287 287 288 289 289 291 292 293 295 296 296 297 297 297 297 298 300 300 301 302 304 305 306 306 307 308 307 307 307 307 306 306 306 306 306 306 306 306 306 306 306
271 271 271 271 271 271 271 272 271 271 271 271 270 270 270 270 270 271 272 273 274 274 273 272 271 270 269 268 269 269 268 268 268 268 268 270 272 273 275 278 280 282 283 284 284 284 286 288 289 290 291 293 294 295 296 296 297 298 298 298 300 301 301 302 304 305 305 305 306 307 307 306 306 306 306 305 305 305 306 306 305 305 305 306 306
271 271 270 271 271 271 271 271 271 271 271 270 270 270 270 269 270 270 270 270 271 272 272 271 271 270 269 268 269 270 270 269 269 268 268 270 271 274 277 278 278 279 280 280 280 281 282 285 287 288 290 292 294 295 296 296 297 298 298 299 300 301 301 302 303 304 305 305 305 306 306 306 306 307 306 305 305 305 305 306 305 305 306 306 305
270 270 270 270 270 270 270 270 270 270 270 270 270 270 269 269 269 269 269 269 270 270 270 270 271 271 270 270 270 271 270 270 269 269 269 269 271 273 273 272 272 273 275 276 277 278 279 281 283 286 288 290 293 294 296 297 297 298 299 299 300 300 301 302 303 304 305 305 305 305 306 306 306 306 306 305 305 305 305 305 305 305 305 305 304
270 270 270 270 270 270 270 270 270 270 270 270 270 269 269 269 269 269 268 268 269 269 269 269 270 271 272 271 270 271 271 271 271 271 272 272 272 271 270 269 269 270 272 273 275 276 278 279 281 283 285 288 291 293 295 296 297 298 299 299 300 300 301 302 302 303 304 304 304 304 305 305 305 306 306 305 305 304 305 305 305 304 304 304 304
270 269 269 269 269 269 269 269 269 269 270 270 270 269 269 269 269 268 268 268 268 269 268 268 268 269 269 269 269 270 271 272 273 274 274 274 272 270 268 268 268 269 270 271 273 274 276 277 278 280 282 285 288 290 293 295 296 298 299 299 300 301 301 302 302 303 303 304 304 304 304 304 305 305 305 305 304 304 304 304 304 303 303 303 303
270 269 269 269 269 269 269 269 269 269 269 269 269 269 269 269 268 268 268 268 267 268 268 268 267 267 267 266 267 269 271 271 271 272 272 272 271 269 267 267 267 268 269 270 271 272 273 274 276 278 280 282 285 287 290 292 295 297 298 299 300 301 301 301 301 302 303 303 303 303 304 304 304 305 305 305 305 304 304 304 304 304 303 303 303
269 269 269 268 268 268 268 268 268 269 269 269 269 269 268 268 268 267 267 267 267 267 268 267 267 267 266 265 266 267 269 269 269 269 270 270 270 269 267 266 266 267 267 268 269 270 271 272 273 275 277 280 282 284 287 289 292 295 297 299 299 300 301 301 301 302 302 302 303 303 303 304 304 304 304 305 305 305 305 304 304 304 304 305 305
269 269 268 268 268 268 268 268 268 268 268 268 268 268 268 268 267 267 267 267 267 267 267 267 267 267 267 266 266 267 268 268 268 269 269 270 270 269 267 266 266 266 266 267 268 269 269 270 272 273 275 277 280 282 284 286 289 293 295 297 298 299 300 300 301 302 302 302 302 303 303 303 303 304 304 304 304 304 304 304 304 303 304 305 305
269 268 268 268 268 268 268 268 267 267 267 267 267 267 267 267 267 267 267 267 267 267 267 267 267 267 267 267 267 268 268 268 268 268 269 269 270 269 268 267 267 266 266 266 267 268 269 270 271 272 273 275 278 280 282 284 287 289 292 295 297 298 299 299 300 301 301 302 302 302 302 302 303 303 304 304 303 303 303 303 302 302 302 303 303
268 268 268 267 267 267 267 267 267 267 267 267 267 267 267 267 267 267 266 266 266 267 267 267 267 267 267 267 268 268 269 268 268 268 268 268 269 269 269 269 268 267 266 266 267 268 268 269 270 271 272 273 275 277 279 281 284 286 289 291 294 296 297 298 299 300 300 301 301 302 302 302 302 302 303 302 302 302 302 302 302 302 302 301 301
268 268 267 267 267 267 267 267 267 267 267 267 266 266 267 267 267 267 266 266 266 266 266 267 267 267 267 267 268 268 268 268 267 267 267 267 268 268 268 269 270 269 268 267 268 268 268 269 270 271 272 273 274 276 277 279 281 284 286 288 291 293 295 296 297 299 299 300 300 301 301 302 302 302 302 301 301 301 301 301 301 301 301 300 300
267 267 267 267 267 267 267 267 267 266 266 266 266 266 266 266 266 266 266 266 266 266 266 266 266 267 267 267 267 267 267 267 266 266 266 267 267 267 267 268 269 269 269 268 268 268 268 269 270 271 272 273 274 275 277 278 280 282 283 286 288 290 293 294 296 297 298 299 300 300 300 300 301 301 301 301 301 301 301 301 301 301 300 300 300
267 267 267 267 267 266 266 266 266 266 266 266 266 266 266 266 266 266 266 266 266 266 266 266 266 266 266 266 266 267 267 266 266 266 266 266 267 267 267 268 269 269 269 268 268 268 269 269 269 270 271 272 273 275 276 277 279 280 282 283 285 288 290 292 294 295 297 298 299 299 299 300 300 300 300 300 300 300 300 300 300 300 300 300 300
267 267 267 267 267 266 266 266 266 266 266 266 266 266 266 266 266 266 266 266 266 266 265 265 266 266 266 266 266 266 266 266 266 266 266 266 266 267 267 268 268 269 269 269 269 269 269 269 269 269 270 271 272 274 275 276 277 279 280 282 283 285 287 289 292 293 295 297 298 298 298 299 299 299 299 299 299 299 299 299 299 299 299 299 299
267 267 267 267 266 266 266 266 266 266 266 266 266 266 266 266 266 266 266 266 266 266 265 265 265 265 266 266 266 266 266 266 266 266 266 266 266 266 267 267 268 268 269 269 269 269 269 269 269 268 269 270 272 272 273 275 276 277 278 280 281 283 285 287 290 291 293 294 296 296 297 297 298 298 299 299 299 299 299 299 299 298 298 298 298
267 267 266 266 266 266 266 266 266 266 266 266 266 266 266 266 266 266 266 266 266 266 266 265 265 265 265 265 266 266 266 266 266 266 266 265 265 266 266 267 267 268 268 269 269 268 268 269 268 268 268 269 271 272 272 273 274 275 276 278 279 281 283 285 287 289 290 292 293 294 295 296 296 297 297 297 298 298 298 298 298 298 298 298 298
266 266 266 266 266 266 266 266 266 266 266 265 265 266 266 266 266 266 266 266 266 266 266 265 265 265 265 265 265 265 266 266 266 266 266 266 265 266 266 266 267 267 268 268 268 268 268 268 268 268 268 268 270 271 271 272 273 274 275 276 278 280 282 283 285 286 288 289 291 292 293 294 294 295 295 296 296 296 297 297 297 297 297 297 297
266 266 266 266 266 266 266 266 266 266 265 265 265 266 266 266 266 266 266 266 266 266 266 265 265 265 265 265 265 265 265 265 265 266 266 266 265 265 266 266 266 267 267 268 268 268 268 268 268 268 267 268 268 270 271 271 272 272 274 275 276 278 279 281 283 284 285 287 288 289 290 291 292 293 293 293 294 294 295 295 296 296 296 296 296
Wind_Speed
25 28 30 33 35 37 39 40 42 43 44 44 44 44 43 44 44 44 45 44 44 44 45 45 45 47 47 45 45 43 39 37 36 35 35 37 42 47 48 46 42 41 41 37 33 31 28 31 36 36 34 34 35 35 36 38 40 41 40 39 46 53 53 56 54 42 49 57 62 63 65 67 66 64 62 61 62 60 59 60 60 58 55 53 55
26 29 32 34 36 38 40 42 43 44 45 45 44 43 43 43 44 45 45 45 44 44 44 45 45 46 47 45 45 43 39 38 36 35 36 37 43 48 45 41 39 39 42 39 35 32 29 30 35 35 34 34 35 36 37 38 40 41 41 40 45 53 56 56 55 47 49 52 59 63 65 69 67 66 68 68 65 63 61 60 58 55 53 54 55
28 30 33 35 37 39 41 43 44 45 45 45 44 42 42 43 43 45 46 45 44 44 44 45 45 44 45 46 46 42 38 37 36 36 37 38 43 46 40 37 40 41 42 41 37 34 30 30 33 34 35 34 34 37 38 39 40 40 40 41 45 53 58 55 54 52 55 53 59 64 65 67 68 70 72 72 69 67 66 64 59 57 57 57 56
28 31 34 36 38 40 42 43 44 45 45 45 44 43 42 44 45 45 46 46 45 45 45 44 45 44 43 44 45 40 35 35 35 36 36 38 42 43 39 40 43 41 41 42 39 35 32 31 31 33 37 36 34 36 38 40 40 39 39 40 45 53 54 52 54 59 62 57 60 65 67 66 68 72 74 73 73 73 72 69 65 62 62 60 57
29 32 34 37 39 41 42 44 45 45 46 45 44 44 43 44 45 45 46 46 44 45 45 43 43 42 40 40 41 38 34 34 35 36 37 38 41 42 42 42 41 39 40 42 41 36 34 33 30 31 36 38 36 36 38 41 39 37 38 39 44 50 48 48 55 65 66 65 63 63 68 69 67 71 75 75 74 72 71 71 70 68 65 63 59
29 32 35 38 40 42 43 44 45 45 46 46 45 45 45 45 46 45 45 45 44 44 44 42 41 40 37 37 37 36 35 35 36 37 38 40 41 42 42 41 39 38 39 42 42 38 36 35 31 31 36 37 37 36 37 37 35 34 36 38 42 47 44 47 57 66 66 70 69 64 65 67 65 67 72 76 74 69 67 67 67 66 65 62 59
30 33 36 39 41 43 44 45 46 46 46 47 46 46 46 46 47 46 45 45 44 43 42 41 39 38 37 35 34 33 33 34 35 36 37 38 39 41 42 40 39 38 37 40 43 40 39 37 32 31 35 36 36 36 35 32 30 31 32 35 40 42 42 46 60 66 65 69 70 67 66 65 66 67 71 76 73 70 69 67 64 63 63 62 60
31 34 37 40 41 43 45 45 46 47 47 48 47 47 47 47 47 46 45 44 43 42 42 40 38 38 37 35 33 32 32 33 34 34 34 35 36 38 39 39 38 37 36 37 42 43 41 39 35 32 34 36 34 34 34 31 29 30 30 31 36 35 38 49 66 65 65 68 67 70 70 66 67 67 69 72 69 67 69 70 68 67 65 63 62
33 35 38 40 42 43 45 46 46 47 48 49 49 49 48 48 47 46 45 44 42 41 40 39 37 37 37 35 33 32 33 34 35 34 32 33 33 34 35 35 34 33 33 35 41 44 43 41 38 34 34 35 33 32 34 32 29 30 30 30 32 29 33 53 71 64 64 66 62 66 68 64 65 65 66 70 70 68 69 68 68 67 65 64 62
34 37 39 41 43 44 45 46 47 47 49 49 50 50 49 48 48 47 45 43 41 40 39 37 36 35 35 34 33 33 34 35 36 34 32 31 32 34 36 36 34 33 32 34 38 43 44 43 41 36 33 33 32 31 33 34 31 29 29 31 30 27 28 50 71 66 66 66 62 64 64 62 66 68 69 72 72 71 69 66 65 64 62 61 60
35 38 41 43 44 45 46 47 47 48 49 49 49 50 49 49 48 47 46 43 40 39 39 37 36 34 33 33 33 34 35 36 35 34 32 31 32 34 36 37 37 36 35 34 36 40 42 42 42 37 33 34 33 32 34 37 35 30 28 32 33 28 27 41 67 70 67 67 65 66 65 65 68 72 74 73 69 70 70 68 67 66 64 62 60
37 40 42 44 45 46 46 47 47 48 48 49 50 50 49 48 48 46 45 43 41 40 40 38 37 34 33 32 33 35 37 37 35 33 32 32 33 35 37 37 37 37 36 35 34 37 38 39 40 37 34 35 36 35 36 38 37 32 28 32 36 33 30 36 61 72 69 69 68 68 70 71 71 73 75 73 71 71 70 68 68 69 69 68 65
38 41 43 44 45 46 45 46 47 47 48 49 49 49 48 47 46 46 45 43 42 42 41 39 36 34 32 32 33 35 36 36 36 34 33 31 32 35 37 37 37 37 38 36 35 35 36 36 37 38 37 38 38 38 39 38 37 35 30 31 36 35 31 37 59 71 70 72 73 73 76 76 75 76 77 78 77 74 70 68 69 71 72 71 70
39 42 44 44 44 44 44 46 46 47 48 48 48 47 47 46 45 44 44 43 43 43 42 40 37 35 34 35 36 35 34 34 33 33 33 32 32 35 36 37 37 37 38 37 35 36 37 36 36 38 40 42 41 39 40 40 39 37 32 29 32 34 31 37 60 72 70 72 74 75 78 79 79 80 80 80 80 78 76 75 75 74 72 70 69
40 43 44 44 43 43 44 45 45 46 46 47 47 46 45 44 44 44 44 44 44 44 43 40 38 36 35 36 37 36 32 30 30 31 32 32 33 34 35 36 37 37 37 37 36 37 38 38 38 40 43 44 44 42 41 41 40 39 35 28 26 28 29 37 61 74 74 74 74 75 76 78 80 81 81 80 80 80 79 79 77 73 66 62 63
41 42 43 42 41 42 43 44 44 45 46 46 46 44 43 43 43 44 44 45 44 43 42 40 37 36 35 35 37 37 32 27 27 29 31 32 32 31 32 33 34 35 35 35 36 36 36 36 37 40 43 45 45 44 42 42 42 40 35 29 24 22 26 38 60 72 75 75 73 72 73 74 77 79 81 81 79 76 73 71 70 69 64 60 59
41 41 40 40 40 41 42 43 44 44 45 45 44 43 43 43 43 43 44 45 45 44 42 40 38 37 36 35 34 34 30 25 25 28 30 30 30 30 31 30 30 31 32 33 34 35 34 34 34 35 38 42 44 44 44 44 44 41 35 31 25 20 23 40 58 67 71 72 69 68 69 72 75 78 81 82 79 75 71 67 67 70 67 61 58
40 39 38 38 39 40 40 41 43 43 44 43 43 42 42 43 43 43 43 44 44 43 41 40 38 36 35 34 32 32 30 26 25 27 29 28 27 28 29 30 29 30 31 31 32 34 34 33 33 32 34 38 40 42 43 43 43 42 36 32 28 21 22 41 57 61 66 68 66 66 67 69 74 78 79 80 78 77 75 72 72 72 69 66 64
38 37 36 37 38 39 39 40 40 42 42 41 41 41 42 42 43 42 42 42 43 41 40 39 38 36 36 34 32 30 30 27 25 27 30 29 27 25 26 29 29 29 30 31 32 33 33 32 31 30 31 34 36 38 39 38 40 40 36 33 31 23 22 41 58 60 62 65 65 68 70 71 75 77 75 76 77 77 76 76 77 76 71 70 69
35 34 35 36 36 37 38 38 39 39 40 40 39 39 40 41 42 42 42 41 41 39 38 37 37 37 37 36 33 30 30 29 28 30 31 29 27 25 25 28 30 30 31 32 32 32 33 33 33 31 30 31 33 34 36 35 36 38 36 34 33 24 21 40 60 61 59 61 61 64 71 72 73 73 73 75 76 76 75 76 78 79 78 74 71
32 32 33 34 35 35 35 36 37 37 37 38 38 38 38 40 41 42 42 40 39 38 37 37 38 40 39 37 35 33 33 33 32 30 29 28 26 25 25 27 30 32 34 34 33 34 35 35 34 32 30 29 29 31 33 31 31 35 36 35 33 24 19 34 57 61 58 60 59 58 64 67 67 70 73 75 75 75 75 75 76 79 81 79 77
30 31 32 33 33 34 34 34 35 36 36 36 37 37 38 39 41 41 40 40 39 38 38 39 40 43 43 38 36 37 37 35 33 31 31 31 28 24 23 25 27 29 34 37 36 35 35 35 34 32 29 28 27 26 28 28 28 34 37 35 32 25 20 28 51 60 57 59 60 57 59 63 64 67 72 74 75 75 75 75 76 78 79 81 82
29 29 31 31 32 32 33 33 34 34 35 35 35 37 39 40 41 41 39 40 39 39 40 41 43 46 43 38 38 41 37 34 37 36 33 32 29 25 22 22 21 22 27 34 37 38 36 34 33 31 29 28 28 26 27 28 30 34 35 32 29 25 20 25 45 60 57 55 59 58 58 62 64 66 70 73 76 76 76 76 76 77 78 79 81
26 28 29 30 31 31 32 32 32 33 34 35 35 37 40 41 42 41 40 39 39 40 42 43 44 45 41 39 42 42 35 36 42 41 34 31 30 27 24 23 20 19 19 22 28 34 38 36 32 28 26 26 27 26 26 28 30 32 31 28 27 25 22 25 44 60 58 54 58 59 59 63 66 67 70 73 74 75 76 75 73 74 76 75 75
25 26 28 29 30 31 31 31 31 32 33 34 35 36 40 42 42 41 40 39 39 41 43 43 43 42 41 43 44 40 36 40 46 44 37 33 31 28 26 24 22 20 18 17 18 23 30 33 31 27 24 23 23 24 25 27 28 28 27 26 25 23 23 29 45 59 58 56 58 60 62 65 67 68 69 70 72 72 73 71 68 69 70 68 68
24 25 27 28 29 30 30 30 31 31 32 34 34 35 37 40 41 40 38 38 39 42 43 43 42 41 42 43 42 39 38 42 43 43 42 39 35 31 29 27 25 22 19 17 16 15 17 22 26 27 25 23 22 22 24 25 25 26 26 25 24 23 25 34 47 58 60 60 61 63 64 65 66 65 65 68 71 71 71 70 67 66 68 66 64
23 24 26 27 28 29 30 31 31 31 32 34 36 35 35 38 39 39 37 37 40 42 41 40 40 41 42 42 39 38 40 40 40 42 44 43 42 39 35 31 30 27 22 18 16 14 12 14 20 24 25 25 24 23 24 24 25 26 26 25 25 25 27 37 51 60 64 66 65 63 62 62 62 61 63 67 70 71 72 71 68 67 69 67 63
22 23 25 26 27 28 29 30 31 31 31 33 35 36 37 37 38 37 35 34 38 41 39 38 38 39 40 40 40 39 39 39 40 42 42 41 42 43 39 35 34 32 27 23 20 18 14 12 15 18 20 22 24 24 24 25 26 28 26 25 25 24 27 39 52 58 62 63 61 57 56 57 59 61 63 66 68 69 70 70 68 68 68 64 61
20 22 24 25 26 27 28 29 30 31 31 31 32 34 35 36 37 36 34 31 31 34 35 35 35 35 37 39 39 39 38 39 38 38 37 36 37 38 37 34 33 32 28 25 22 20 18 16 14 14 15 18 21 23 24 25 27 28 27 25 24 24 28 40 51 55 56 56 55 55 56 58 59 61 63 65 66 67 68 68 67 66 65 64 63
19 21 23 24 25 27 28 28 28 29 31 32 32 32 32 32 33 35 34 32 29 28 29 31 31 31 34 37 36 33 33 36 36 35 34 34 32 29 27 26 28 27 24 23 22 20 19 18 16 15 15 16 19 22 23 25 27 28 28 27 25 25 31 42 51 55 56 56 57 58 60 60 59 60 62 64 64 65 67 68 67 65 64 64 63
19 21 22 23 25 26 27 28 28 29 29 31 33 34 33 32 31 32 33 33 33 32 31 31 31 31 33 36 36 32 30 32 35 34 33 32 28 22 17 18 23 23 19 19 20 19 17 17 18 16 15 16 18 20 23 25 27 29 29 27 26 28 35 45 52 54 55 57 59 60 60 61 61 61 62 63 63 64 65 66 65 65 66 67 63
18 20 22 22 23 25 26 26 28 28 28 30 32 34 36 36 34 33 33 33 34 36 37 37 38 37 37 37 36 34 32 34 34 33 31 29 24 18 14 15 19 20 16 12 12 13 13 15 17 18 17 18 19 20 22 25 27 30 29 27 26 31 40 49 54 55 56 58 61 61 61 62 63 63 63 63 63 63 63 64 63 64 66 66 63
18 19 20 21 22 23 24 25 26 27 28 30 31 33 35 37 38 38 37 35 34 36 39 41 43 45 45 43 38 32 31 32 33 33 32 29 25 19 14 12 14 14 9 2 4 5 8 10 12 15 16 18 19 21 23 25 27 29 29 27 28 34 42 50 53 55 56 58 60 62 62 62 62 62 62 62 63 63 64 64 64 63 63 62 61
17 18 19 21 22 22 23 24 25 25 26 28 29 30 32 34 37 39 41 41 40 39 41 43 44 46 49 49 45 38 32 31 32 35 34 32 31 26 15 6 6 9 9 9 8 4 1 5 9 11 13 14 15 18 22 24 26 28 29 28 29 34 42 48 52 54 55 56 57 60 61 60 60 61 61 61 61 63 64 65 64 63 63 63 62
15 16 17 19 20 21 22 22 23 24 25 26 27 29 30 32 33 36 39 41 43 44 44 45 45 46 48 50 49 46 41 36 34 36 37 36 34 29 21 16 16 18 18 18 18 15 10 5 4 7 9 11 13 16 19 22 26 28 28 28 31 36 41 46 50 53 55 55 55 58 59 59 60 61 62 62 61 62 64 66 67 67 66 65 63
13 14 15 16 18 19 20 20 21 22 23 24 26 27 28 30 32 33 35 37 39 42 44 45 45 45 46 48 49 49 47 44 40 39 39 39 38 36 36 39 39 35 31 28 25 22 18 13 8 5 5 8 12 15 18 20 23 27 28 28 31 36 41 46 50 53 55 55 55 57 58 59 60 60 61 62 62 63 64 66 67 66 65 64 62
12 13 14 15 16 17 18 18 20 21 22 23 24 25 26 28 30 31 34 36 37 39 42 45 46 46 48 50 50 49 48 47 45 42 40 39 41 43 46 47 45 42 39 35 31 27 24 20 16 11 7 3 7 12 16 19 22 25 27 28 30 35 41 46 50 53 54 54 54 55 56 58 59 60 60 61 62 63 64 65 65 64 63 62 61
11 12 13 14 15 16 16 17 18 19 20 21 23 24 26 28 29 31 32 34 36 38 40 43 45 47 49 50 50 48 48 48 49 49 46 43 44 47 49 48 47 45 43 40 36 33 30 27 23 19 14 7 2 5 11 15 19 22 25 26 30 35 40 45 49 52 53 53 52 53 55 56 57 58 60 60 61 61 61 62 63 62 60 60 60
10 12 13 14 14 15 15 16 17 18 19 20 22 24 25 27 29 30 32 33 35 36 38 40 42 44 46 47 48 47 49 51 53 52 50 48 48 49 50 50 49 48 46 44 41 38 36 33 30 26 21 15 9 3 3 9 14 18 21 25 29 34 39 43 46 49 52 52 51 52 54 55 56 57 59 59 61 62 61 60 61 61 61 61 63
9 10 11 12 13 14 14 15 16 17 19 20 21 23 25 27 28 29 31 32 33 35 36 38 39 41 42 43 44 45 48 51 51 51 49 48 48 49 50 51 51 50 49 47 45 43 41 39 36 32 28 23 17 11 6 1 7 12 17 23 28 33 38 43 46 49 51 51 51 52 54 55 56 57 58 59 60 62 62 62 62 62 63 65 67
7 9 10 11 12 13 13 14 16 17 19 20 21 22 23 25 26 28 29 31 32 33 34 35 36 37 38 38 39 41 44 46 48 48 48 48 47 48 49 49 49 49 49 48 47 46 44 42 40 38 34 30 24 18 13 7 4 7 13 19 25 29 34 40 45 48 50 51 50 51 52 55 56 57 58 59 59 60 61 62 62 61 62 64 66
6 7 9 10 11 11 12 13 15 16 17 18 20 21 22 23 24 26 27 29 30 31 32 33 34 34 36 36 37 38 40 43 45 46 46 46 46 46 47 48 48 49 49 48 48 47 46 45 44 43 40 37 32 27 21 15 10 6 7 13 19 24 29 34 39 43 47 49 50 50 50 52 54 56 58 59 58 57 58 58 59 59 60 61 62
5 6 8 9 9 10 11 13 14 15 16 17 19 20 21 22 23 24 25 27 28 29 31 32 32 33 34 35 35 36 38 41 43 45 46 46 46 46 46 46 46 47 48 47 47 48 47 46 46 45 44 42 39 36 31 26 19 12 8 8 13 18 24 29 34 37 40 44 47 49 50 50 51 53 55 55 56 56 57 57 57 57 58 59 59
4 5 6 8 9 10 11 12 13 14 16 17 18 18 19 20 21 22 23 25 26 28 29 30 31 32 33 34 35 36 38 40 42 44 45 45 46 46 46 45 45 46 47 48 47 48 48 48 47 46 45 44 42 40 38 34 29 22 15 8 7 11 17 22 27 32 36 39 42 45 47 49 50 51 52 52 53 54 55 55 56 57 57 57 58
4 5 6 7 8 9 10 11 12 14 15 16 16 17 18 19 20 21 22 23 25 26 27 28 29 31 32 33 34 36 36 38 39 40 41 42 43 44 44 44 44 45 47 48 48 48 49 50 49 48 47 47 45 43 40 38 35 32 26 18 10 5 9 14 19 24 30 35 37 39 42 45 48 50 50 51 52 54 54 55 56 57 56 56 57
3 4 5 6 7 8 9 11 12 13 14 15 16 16 17 18 19 20 21 22 23 24 25 26 28 29 30 31 32 33 34 34 35 36 38 39 40 41 42 42 42 43 45 47 48 49 50 51 51 50 49 48 47 45 43 40 38 36 33 28 22 14 5 6 12 18 24 29 33 35 37 39 43 45 46 47 48 50 52 53 54 54 55 56 56
3 4 5 5 6 8 9 10 12 13 14 15 16 16 17 17 18 19 19 20 22 23 24 25 26 27 28 29 30 31 31 32 32 33 34 36 37 38 39 40 40 41 43 46 48 49 50 51 52 51 50 49 49 48 46 43 40 37 35 33 29 24 15 6 6 13 18 23 27 30 32 34 37 40 42 43 44 45 46 47 48 50 52 53 53
4 4 5 6 6 8 9 10 11 12 13 14 15 16 16 16 17 17 18 19 20 21 22 23 24 25 26 27 28 28 29 29 29 30 31 33 34 35 36 38 39 40 41 44 47 49 50 51 52 52 51 50 50 49 49 47 44 40 37 34 31 27 22 16 9 7 11 16 20 24 26 28 31 34 36 38 40 42 43 44 45 46 47 48 49
4 5 5 6 7 8 9 10 11 12 13 14 14 14 15 16 16 17 17 18 19 20 21 22 23 24 25 25 26 26 27 27 28 28 29 30 32 33 34 35 37 39 40 43 46 48 49 50 52 52 52 51 50 49 49 48 46 43 40 36 31 27 24 22 19 13 9 10 14 17 21 24 26 29 31 33 34 36 39 41 42 43 43 45 45
4 5 5 6 7 7 8 9 10 11 12 12 13 13 14 15 15 16 17 18 18 19 20 21 22 23 24 24 25 25 26 27 27 27 27 28 29 30 32 33 35 37 39 41 43 45 47 49 51 52 53 52 51 49 48 48 46 44 41 38 34 30 26 24 23 20 16 13 11 12 15 19 22 25 27 28 30 32 34 36 37 37 39 41 42
4 4 5 5 6 7 7 8 9 10 11 11 12 13 13 14 15 16 17 17 18 19 19 20 21 21 22 23 24 24 24 25 25 25 26 26 27 29 30 31 33 35 37 39 40 42 44 46 49 51 52 53 51 49 48 47 45 43 41 40 38 35 32 28 25 23 21 18 15 13 12 13 16 19 21 23 25 28 30 32 32 33 34 35 37
Wind_Direction
326 327 329 330 330 329 328 328 327 325 324 323 322 322 322 322 322 320 319 319 317 314 313 311 307 304 302 298 295 292 285 278 276 275 274 272 271 267 266 269 270 267 263 256 249 250 250 250 250 252 257 257 258 262 260 261 260 254 252 244 238 237 235 242 247 220 189 189 189 189 192 190 190 192 190 186 184 185 188 187 185 184 185 188 189
328 330 330 330 330 330 330 329 328 325 323 322 322 324 324 324 323 322 321 321 319 316 314 312 309 304 300 296 293 291 286 278 274 273 273 271 272 273 272 272 271 266 262 255 250 248 247 249 250 251 256 257 256 259 259 259 258 255 253 244 237 236 232 240 246 218 186 184 187 186 188 188 187 188 188 183 181 183 186 186 188 190 191 191 190
330 331 331 331 331 332 332 330 328 325 323 323 324 325 325 324 323 323 322 322 321 318 314 312 309 304 298 294 293 291 284 277 273 271 271 270 272 277 277 271 265 261 258 255 252 249 247 249 251 252 254 255 256 256 257 258 256 255 253 243 237 235 232 241 241 210 182 180 185 183 183 184 185 186 187 186 185 185 186 187 190 193 194 194 192
332 332 332 332 333 333 332 330 327 325 324 324 325 326 325 324 324 324 323 322 321 318 313 310 307 304 297 291 292 291 282 275 273 270 268 269 272 277 278 273 269 265 258 255 252 249 247 248 252 256 254 255 256 253 255 256 254 256 252 242 236 232 233 244 235 204 183 179 182 182 181 182 184 184 185 186 186 186 186 187 188 191 193 194 193
333 333 333 333 334 333 331 329 327 325 324 324 325 326 326 325 325 324 323 321 318 314 313 310 306 303 297 290 289 289 282 275 272 270 268 270 272 276 278 277 275 267 258 252 248 246 247 246 250 256 256 256 255 253 255 253 252 256 250 243 236 229 235 245 224 198 186 181 180 181 181 181 183 183 183 182 181 182 183 184 184 186 188 190 191
334 334 334 334 334 332 330 328 326 325 324 324 325 326 326 326 325 324 322 318 316 312 311 311 307 303 298 291 288 288 285 279 276 272 271 273 274 276 279 279 276 268 258 250 244 244 246 246 248 252 254 256 253 254 257 252 252 256 249 246 237 229 242 244 212 192 186 182 180 180 179 180 181 180 181 182 179 178 180 181 182 183 184 185 186
335 336 336 335 333 331 329 327 326 325 324 324 325 326 327 327 326 325 321 316 315 314 312 311 309 306 300 294 291 290 289 286 281 275 274 275 275 276 279 280 277 270 260 250 244 243 245 247 248 249 253 254 252 255 257 252 253 254 251 251 238 233 250 237 202 187 184 181 179 180 179 179 180 179 180 182 181 180 180 178 179 182 185 185 185
336 337 336 334 332 330 328 327 325 325 324 324 325 326 327 327 326 324 321 317 316 315 314 312 310 307 302 298 295 296 295 291 286 281 278 279 278 278 279 279 277 272 263 252 245 242 243 246 246 247 251 253 250 253 257 258 256 250 253 252 235 241 253 221 193 184 183 180 179 179 178 178 179 178 178 179 178 179 180 180 179 182 185 186 186
337 337 335 333 331 329 328 327 326 325 325 325 326 327 328 328 326 324 321 319 318 316 314 312 309 307 303 300 298 297 295 292 289 287 286 285 285 283 282 280 278 274 266 255 245 241 242 245 245 245 248 251 251 252 256 262 262 254 258 253 235 250 250 205 186 182 182 179 178 178 176 176 176 174 174 176 178 179 180 182 182 182 183 184 186
337 336 334 332 331 330 328 327 327 326 326 326 327 328 329 328 327 325 322 321 320 319 315 313 311 309 306 304 301 298 294 291 291 291 288 285 282 282 282 281 279 277 271 260 248 241 240 245 247 246 248 252 254 254 254 261 265 258 260 255 241 256 248 197 182 181 180 177 177 176 174 175 175 175 176 178 181 180 179 181 181 180 181 182 184
336 334 333 332 331 330 330 329 328 327 327 327 327 328 329 329 327 326 324 324 323 320 318 316 315 313 309 307 304 300 295 291 292 292 286 277 273 274 275 275 274 274 272 266 255 245 241 245 248 247 249 252 254 255 255 258 263 262 260 256 246 255 252 201 180 177 178 176 175 176 175 175 177 178 179 179 180 179 179 181 181 179 180 182 183
334 333 332 332 332 332 331 329 328 328 327 328 329 330 330 329 328 327 326 327 326 323 321 321 318 315 312 309 307 304 298 293 294 294 285 274 269 270 271 269 268 266 265 265 261 253 247 247 249 248 249 253 253 255 256 258 263 264 262 259 248 246 251 215 185 177 178 176 175 176 178 178 179 180 180 180 180 181 180 181 182 181 182 184 185
333 332 331 332 333 333 332 330 329 329 329 330 332 332 332 330 329 329 328 329 328 326 324 323 320 318 316 312 310 307 300 294 295 297 293 282 272 270 270 268 268 264 260 260 260 256 251 250 251 248 246 250 252 253 256 259 264 266 264 262 252 243 246 225 197 186 183 180 178 179 181 182 181 181 182 182 181 181 181 181 183 185 186 187 187
332 331 331 333 334 333 332 330 330 331 332 333 334 334 333 331 330 331 331 330 330 328 327 326 324 323 320 314 313 310 301 296 297 300 300 291 278 272 270 268 269 266 259 258 258 256 253 251 252 249 246 249 251 252 257 261 266 269 266 262 254 246 244 222 201 194 190 186 183 182 183 185 185 184 184 184 183 182 183 184 186 186 186 186 186
331 331 332 334 335 334 332 332 333 334 335 335 336 335 334 333 333 334 334 332 331 329 327 325 323 321 317 314 313 310 304 302 305 306 303 295 283 276 272 269 270 267 261 258 256 254 252 250 251 249 247 250 252 254 259 262 266 270 269 265 256 250 242 216 197 193 191 190 189 186 185 187 188 186 185 185 186 186 186 186 185 184 183 182 183
330 331 334 336 336 335 334 334 335 337 337 337 337 338 337 335 336 337 335 332 330 327 326 325 322 319 318 318 317 312 307 306 310 310 308 301 288 278 273 270 268 266 261 259 258 256 254 253 253 251 249 251 254 256 259 263 266 269 269 267 259 252 242 215 196 191 192 194 194 192 190 190 190 189 188 188 187 186 185 183 182 182 182 180 182
330 333 337 338 337 337 337 337 339 339 339 339 340 340 339 338 338 338 335 331 330 329 328 326 323 321 323 325 323 317 310 309 313 315 314 308 293 280 277 274 269 265 262 261 261 261 261 260 258 256 254 254 255 257 259 262 264 265 267 268 264 259 241 214 197 191 193 195 197 197 195 193 192 192 192 190 188 185 182 179 180 182 182 181 182
333 337 339 339 338 339 339 340 341 341 340 341 342 343 342 340 339 338 335 332 331 330 328 326 325 325 328 331 331 325 316 312 316 321 322 317 302 286 280 277 271 265 263 262 261 261 262 263 262 260 260 258 256 256 257 259 261 261 264 267 266 264 240 211 197 190 191 194 197 197 196 195 194 192 190 189 188 188 186 184 184 184 183 183 185
336 339 340 339 340 341 342 342 342 342 341 343 346 345 343 341 339 337 336 335 332 330 330 329 328 331 334 335 334 330 321 315 319 324 326 326 317 300 288 282 276 269 264 263 265 265 266 267 265 264 265 262 258 255 253 254 256 256 260 266 264 260 237 209 196 190 188 189 191 192 192 194 194 191 189 189 190 191 193 191 187 185 185 187 187
339 341 340 341 343 344 344 343 344 344 344 346 349 348 345 342 340 340 339 337 333 332 334 334 333 335 337 337 336 334 327 321 321 321 320 321 320 310 298 289 283 276 268 263 264 267 267 266 265 264 267 266 261 256 252 250 253 254 257 261 256 249 233 209 198 192 189 187 186 186 187 189 189 188 189 191 192 194 196 194 192 190 190 189 188
342 342 341 343 345 346 346 345 346 347 348 349 350 350 347 345 344 344 342 339 337 337 339 340 338 338 341 342 340 339 335 327 321 319 319 320 319 315 308 300 292 284 275 268 264 263 262 263 263 264 267 267 262 258 253 248 251 253 253 253 248 245 241 217 201 193 190 189 187 185 185 185 185 185 187 190 194 195 194 194 196 195 193 191 190
343 342 342 345 348 349 348 348 349 350 352 353 352 352 350 349 348 347 345 342 341 341 342 343 341 341 344 344 340 339 339 333 326 322 320 318 317 316 313 308 301 290 280 271 266 264 262 263 264 263 266 268 263 259 254 249 251 253 250 251 251 246 248 227 205 194 190 189 187 186 185 183 183 184 186 190 195 195 193 195 199 199 196 196 196
343 342 344 347 351 351 350 351 353 354 356 357 356 355 354 353 352 351 348 346 343 342 344 344 343 344 344 341 339 341 338 331 329 326 321 318 318 316 310 306 304 301 289 276 270 269 267 268 267 261 261 267 265 259 255 251 253 253 250 255 255 242 240 232 207 196 192 189 186 186 186 185 185 186 187 190 194 196 196 197 199 200 198 199 200
342 343 347 350 353 354 353 355 357 358 360 1 0 360 358 356 355 354 353 349 344 343 345 345 344 345 341 336 340 344 337 327 330 333 329 325 322 315 309 304 302 304 300 286 277 274 272 273 274 266 261 264 263 260 256 251 252 254 252 255 253 238 237 231 205 193 190 188 185 186 187 188 190 192 193 194 196 198 199 198 198 199 198 198 200
343 346 351 353 355 355 355 358 1 2 3 4 6 6 2 359 358 358 355 352 347 345 345 345 345 343 339 338 342 343 336 331 335 339 338 333 326 317 311 306 300 298 296 290 285 284 280 277 275 271 266 264 261 258 255 251 251 254 253 250 247 239 237 225 200 189 187 187 186 188 191 193 196 199 199 198 197 198 198 197 197 197 196 197 199
346 351 355 356 357 357 357 360 3 6 6 7 10 13 8 3 1 360 357 353 351 347 345 345 345 341 339 342 343 339 337 337 337 339 340 337 330 321 313 305 300 299 296 287 283 290 291 282 273 266 261 260 259 254 252 253 255 257 254 249 244 241 235 218 198 189 189 191 191 193 196 197 199 199 196 194 194 196 197 197 196 196 196 197 198
350 355 358 359 359 359 360 1 3 7 10 10 11 15 15 10 5 2 359 356 353 349 346 345 345 343 343 345 342 339 340 340 338 339 341 337 329 322 315 307 304 301 297 291 290 294 298 290 279 270 260 256 256 255 254 257 260 260 256 248 244 242 231 213 200 193 194 196 195 195 196 196 195 194 192 191 194 197 198 197 196 196 197 198 198
354 358 0 2 1 1 3 3 2 5 12 15 14 14 16 16 13 8 6 0 352 347 346 346 346 346 346 346 344 342 342 342 342 341 338 333 326 321 315 312 310 306 299 295 295 294 289 283 279 275 266 257 253 252 254 255 257 257 252 245 243 240 226 210 202 197 195 194 193 191 191 191 192 192 192 192 194 196 197 197 196 197 196 197 197
359 2 2 3 3 3 5 5 4 4 9 16 19 19 18 20 18 15 15 11 357 347 347 349 349 348 349 350 348 346 343 342 342 339 335 332 328 321 315 313 311 305 297 294 297 296 289 282 276 272 269 260 249 247 250 252 253 253 249 242 239 236 223 209 201 197 194 191 189 188 190 192 192 192 192 193 194 195 196 195 196 196 195 196 198
3 5 5 4 5 5 6 7 6 6 8 13 17 20 23 26 25 22 20 20 15 5 357 354 353 353 353 352 351 348 344 342 342 341 339 338 332 321 314 310 304 295 282 278 284 288 283 280 278 272 269 264 254 248 249 251 252 252 248 241 237 233 222 210 202 198 195 192 191 192 193 193 191 190 191 192 192 194 195 196 195 194 194 196 197
6 8 8 7 7 7 8 7 7 7 10 13 13 14 18 24 29 31 28 26 26 25 21 15 10 6 359 354 353 352 350 348 349 349 347 345 339 329 321 314 306 297 279 263 266 273 274 274 273 270 268 265 259 252 251 252 252 251 249 245 239 229 218 209 203 198 195 194 194 195 195 194 193 192 192 192 192 193 194 195 194 195 197 198 197
9 9 9 8 9 10 10 8 8 8 11 14 15 14 13 15 19 26 30 31 30 29 30 30 29 23 14 4 359 358 357 357 357 357 358 358 353 343 338 336 326 313 293 263 251 263 274 277 277 278 276 272 265 257 253 253 253 252 251 247 238 225 214 207 203 199 195 194 194 195 195 195 195 194 193 192 192 192 192 192 193 195 198 199 198
11 11 10 9 10 12 12 10 10 10 11 15 16 16 16 15 13 14 19 25 28 30 31 32 33 31 26 18 12 8 6 6 6 7 9 11 11 7 1 356 352 344 332 288 202 232 256 263 270 276 276 274 273 267 260 255 254 254 254 248 236 223 213 206 202 199 196 195 194 194 195 195 194 194 193 192 192 192 192 193 194 196 197 198 197
11 11 10 10 11 13 13 11 11 11 14 16 17 17 19 19 17 15 14 16 19 23 27 29 31 32 29 25 23 21 20 20 20 20 20 22 26 26 20 352 349 16 36 55 62 55 277 251 257 262 262 261 262 263 263 260 257 256 254 247 235 223 212 204 201 198 197 195 194 193 194 193 192 192 192 192 193 193 193 194 195 195 197 198 198
13 13 12 12 13 13 13 13 12 12 15 17 18 19 20 20 21 20 19 18 17 18 20 23 27 30 29 26 25 26 27 28 31 30 29 30 31 33 35 38 38 40 44 47 47 44 39 18 307 277 266 253 243 242 249 254 256 258 255 245 231 220 210 203 200 198 197 195 194 194 193 193 193 194 194 193 193 193 194 195 195 196 198 198 197
15 16 13 13 15 15 14 13 13 14 16 17 18 20 21 22 22 23 23 22 20 19 19 19 22 27 30 29 27 27 29 31 33 36 36 37 38 39 40 39 38 38 39 41 43 43 42 37 24 350 296 259 243 237 237 240 245 252 254 244 228 216 208 204 201 199 197 196 196 195 194 194 194 195 195 194 195 195 196 196 196 197 197 197 196
16 16 15 16 18 18 16 15 15 15 16 17 18 19 21 22 24 24 24 24 22 20 20 19 18 23 28 28 25 25 27 30 33 37 39 40 43 43 40 37 36 37 38 39 40 41 41 39 35 27 13 303 251 242 237 233 233 238 244 241 227 214 210 207 204 200 198 197 197 196 195 195 195 195 195 195 195 196 197 197 197 197 197 196 196
15 14 15 18 20 19 18 17 17 17 17 17 18 19 20 22 23 25 26 26 24 22 22 21 21 22 25 24 22 22 26 28 31 33 34 37 40 39 36 34 35 37 38 39 39 40 39 39 37 35 32 25 337 250 238 234 230 228 230 230 225 218 213 209 206 203 200 198 197 197 197 196 195 195 196 197 197 197 197 198 198 197 196 195 195
13 12 12 15 18 19 17 16 18 18 18 19 18 19 19 21 22 24 26 27 26 25 24 23 23 25 26 24 20 20 25 29 30 31 32 35 38 36 33 31 32 33 35 36 38 38 37 36 36 37 37 38 36 27 240 231 229 225 219 216 217 219 215 209 204 203 201 199 197 198 198 197 197 197 198 199 199 199 199 199 199 198 197 197 198
10 11 11 13 16 16 15 16 18 19 19 21 20 20 20 20 21 23 25 26 27 26 26 25 24 25 28 27 23 21 25 29 31 31 32 35 38 38 35 32 30 29 30 32 34 35 35 35 35 37 39 41 43 45 47 141 213 215 209 203 205 211 213 210 206 204 202 200 199 199 199 199 199 199 200 201 202 202 201 201 201 200 200 201 203
10 9 9 12 15 16 15 16 18 20 21 22 21 20 20 20 20 21 23 25 27 27 27 27 26 25 28 30 28 26 28 30 31 32 34 35 37 39 38 35 32 29 28 30 32 33 33 34 36 38 40 41 44 47 50 59 116 182 195 195 195 200 205 208 208 207 204 202 200 200 200 201 201 201 202 203 203 203 203 203 203 202 202 203 204
9 8 9 11 14 14 14 16 18 20 21 21 21 21 19 18 18 20 22 23 25 26 27 27 27 26 27 29 29 29 31 32 32 33 34 35 37 39 39 39 37 33 30 30 31 31 32 34 36 38 39 41 44 46 49 52 64 99 157 180 187 191 195 199 202 204 205 204 202 201 201 201 201 203 205 205 204 204 204 204 204 204 203 204 204
4 4 8 9 9 11 14 16 17 18 18 18 19 19 18 17 16 18 20 22 24 25 26 26 26 26 27 28 28 30 33 35 34 34 34 35 36 38 39 40 40 39 35 33 34 33 33 34 37 38 39 40 43 45 47 49 53 62 92 146 172 182 188 193 196 199 201 202 203 204 204 203 203 204 205 205 204 205 206 206 206 206 206 206 206
357 2 4 4 6 9 12 14 14 14 14 15 15 14 15 15 14 15 17 20 23 24 25 25 25 25 26 27 28 30 33 35 35 34 34 35 36 37 37 39 41 42 40 37 37 37 35 35 37 39 40 41 43 45 47 49 52 55 61 83 141 172 183 190 194 197 199 200 202 204 205 206 206 207 207 206 205 205 206 207 207 207 207 207 206
348 354 358 359 1 4 6 9 10 10 10 10 10 10 10 12 13 13 15 17 21 24 25 24 25 26 26 27 28 30 32 35 36 35 34 35 36 37 38 39 41 43 43 40 40 40 39 37 37 39 40 41 43 44 46 48 50 52 54 57 70 124 175 187 192 198 201 202 202 203 205 206 207 207 208 208 207 207 207 208 208 208 208 207 207
330 339 346 351 354 356 360 2 3 5 4 4 4 6 8 10 11 13 14 15 18 21 24 24 25 26 27 27 29 30 31 34 36 35 35 35 35 36 38 39 41 44 45 44 42 42 42 40 39 37 38 40 42 44 44 45 47 49 51 53 55 59 85 174 193 200 204 205 206 207 207 207 208 208 208 208 208 208 208 209 209 209 208 208 208
312 323 331 337 342 349 354 356 357 359 0 0 2 5 7 9 11 13 14 15 16 19 22 23 25 26 27 28 29 30 31 33 35 36 35 34 34 35 36 37 39 42 45 46 45 44 44 43 41 37 37 40 43 44 44 44 44 45 47 49 49 50 53 75 175 196 202 205 208 209 210 211 212 211 210 210 209 208 208 208 209 209 209 208 208
296 307 319 328 335 342 347 349 352 355 357 359 2 4 6 8 11 12 14 16 16 17 20 22 23 26 28 29 29 31 32 33 34 36 37 35 34 34 35 36 37 40 43 46 47 46 45 44 42 38 37 39 42 44 43 43 42 43 44 45 46 47 50 60 86 145 180 193 201 204 206 210 213 213 213 213 212 211 210 210 209 209 209 208 208
286 297 310 319 326 335 342 345 348 353 356 359 3 4 4 7 10 12 14 17 18 18 18 20 21 23 26 28 30 31 32 33 34 36 37 36 35 34 35 37 38 39 41 44 47 47 46 45 44 40 38 38 41 44 44 43 41 41 41 43 45 48 52 59 67 80 112 155 178 189 194 199 203 206 208 210 211 211 212 212 211 211 210 209 208
278 289 301 311 320 330 337 343 347 351 354 358 3 5 5 6 8 11 14 17 18 19 20 20 20 21 23 26 28 30 31 32 32 33 35 36 36 35 35 37 39 39 40 42 45 46 46 46 44 42 39 38 39 42 44 44 42 41 40 41 44 48 52 57 62 67 76 96 126 155 174 184 190 193 195 198 201 204 205 207 209 210 210 209 209
276 288 297 306 316 326 335 340 345 348 351 357 4 6 6 6 7 10 13 15 17 20 21 21 20 21 22 24 26 28 30 32 33 33 34 35 36 36 35 36 38 39 39 40 42 44 46 46 45 43 40 38 37 40 43 44 43 43 42 42 44 47 50 53 58 63 67 75 87 106 131 154 168 175 178 182 186 190 194 197 199 201 202 204 205